Madison, WI

9:09 AM CST on November 13, 2019 (GMT -0600)
Dane County Regional-Truax

Weather History for KMSN - July, 2019

Change the Weather History Date:

Friday, July 12, 2019

  Actual Average Record
Temperature  
Mean Temperature 71 °F 72 °F  
Max Temperature 85 °F 82 °F 104 °F (1936)
Min Temperature 57 °F 61 °F 45 °F (1975)
Degree Days  
Heating Degree Days 0 0  
Month to date heating degree days 0 0  
Since 1 June heating degree days 42 60  
Since 1 July heating degree days 0 0  
Cooling Degree Days 6 7  
Month to date cooling degree days 117 82  
Year to date cooling degree days 235 232  
Since 1 June cooling degree days 215 202  
Growing Degree Days 20 (Base 50)    
Moisture  
Dew Point 60 °F    
Average Humidity 69    
Maximum Humidity 93    
Minimum Humidity 44    
Precipitation  
Precipitation 0.00 in 0.14 in 1.23 in (1937)
Month to date precipitation 2.14 1.69  
Year to date precipitation 23.11 18.06  
Snow  
Snow 0.00 in 0.00 in 0.00 in (2018)
Month to date snowfall 0.0 0.0  
Since 1 June snowfall 0.0 0.0  
Since 1 July snowfall 0.0 0.0  
Snow Depth 0.00 in    
Sea Level Pressure  
Sea Level Pressure 29.94 in    
Wind  
Wind Speed 5 mph (SSW)    
Max Wind Speed 10 mph    
Max Gust Speed 21 mph    
Visibility 10 miles    
Events      
T = Trace of Precipitation, MM = Missing Value Source: NWS Daily Summary

Daily Weather History Graph

Daily Weather History Graph

Search for Another Location

Airport or City:

Astronomy

Jul. 12, 2019 Rise Set
Actual Time 5:28 AM CDT 8:36 PM CDT
Civil Twilight 4:54 AM CDT 9:11 PM CDT
Nautical Twilight 4:09 AM CDT 9:55 PM CDT
Astronomical Twilight 3:16 AM CDT 10:48 PM CDT
Moon 4:53 PM CDT (7/12) 2:15 AM CDT (7/12)
Length of Visible Light 16h 17m
Length of Day
15h 08m
Waxing Gibbous, 83% of the Moon is Illuminated
Jul 12
Waxing Gibbous
Jul 16
Full
Jul 24
Last Quarter
Jul 31
New
Aug 7
First Quarter

Hourly Weather History & Observations

Time (CDT) Temp. Heat Index Dew Point Humidity Pressure Visibility Wind Dir Wind Speed Gust Speed Precip Events Conditions
12:53 AM 61.0 °F - 57.9 °F 90% 29.96 in 10.0 mi Calm Calm - N/A   Clear
1:53 AM 60.1 °F - 57.0 °F 90% 29.96 in 10.0 mi Calm Calm - N/A   Clear
2:53 AM 62.1 °F - 57.0 °F 84% 29.96 in 10.0 mi South 3.5 mph - N/A   Clear
3:53 AM 62.1 °F - 57.0 °F 84% 29.96 in 10.0 mi South 4.6 mph - N/A   Clear
4:53 AM 57.9 °F - 55.9 °F 93% 29.97 in 10.0 mi Calm Calm - N/A   Clear
5:53 AM 57.9 °F - 55.9 °F 93% 29.98 in 6.0 mi Calm Calm - N/A   Clear
6:53 AM 64.9 °F - 60.1 °F 84% 29.99 in 10.0 mi South 3.5 mph - N/A   Clear
7:53 AM 68.0 °F - 61.0 °F 78% 29.98 in 10.0 mi SSE 5.8 mph - N/A   Partly Cloudy
8:53 AM 72.0 °F - 61.0 °F 68% 29.99 in 10.0 mi SSE 4.6 mph - N/A   Partly Cloudy
9:53 AM 75.0 °F - 57.9 °F 55% 29.98 in 10.0 mi SW 4.6 mph - N/A   Clear
10:53 AM 77.0 °F - 57.9 °F 52% 29.98 in 10.0 mi SW 8.1 mph - N/A   Clear
11:53 AM 79.0 °F - 57.9 °F 48% 29.96 in 10.0 mi WSW 5.8 mph - N/A   Clear
12:53 PM 81.0 °F 81.3 °F 59.0 °F 47% 29.95 in 10.0 mi Variable 5.8 mph - N/A   Clear
1:53 PM 82.9 °F 82.8 °F 59.0 °F 44% 29.93 in 10.0 mi Variable 4.6 mph - N/A   Clear
2:53 PM 84.9 °F 85.0 °F 61.0 °F 44% 29.91 in 10.0 mi Variable 4.6 mph - N/A   Clear
3:53 PM 84.9 °F 85.0 °F 61.0 °F 44% 29.91 in 10.0 mi WSW 8.1 mph - N/A   Partly Cloudy
4:53 PM 84.9 °F 85.4 °F 62.1 °F 46% 29.89 in 10.0 mi WSW 6.9 mph - N/A   Partly Cloudy
5:53 PM 84.0 °F 84.4 °F 61.0 °F 46% 29.88 in 10.0 mi Variable 5.8 mph - N/A   Mostly Cloudy
6:53 PM 82.9 °F 84.0 °F 63.0 °F 51% 29.88 in 10.0 mi Variable 4.6 mph - N/A   Mostly Cloudy
7:53 PM 82.0 °F 83.4 °F 64.0 °F 54% 29.90 in 10.0 mi Variable 4.6 mph - N/A   Mostly Cloudy
8:53 PM 80.1 °F 81.7 °F 64.0 °F 58% 29.90 in 10.0 mi SW 3.5 mph - N/A   Mostly Cloudy
9:53 PM 79.0 °F - 64.0 °F 60% 29.91 in 10.0 mi Variable 4.6 mph - N/A   Mostly Cloudy
10:53 PM 78.1 °F - 64.0 °F 62% 29.91 in 10.0 mi SW 4.6 mph - N/A   Mostly Cloudy
11:53 PM 78.1 °F - 64.0 °F 62% 29.90 in 10.0 mi SW 6.9 mph - N/A   Clear